Tracking 17265 objects as of 4-September-2015
HD Live streaming from Space Station

Track Soyuz TMA-18M
and Space Station

SL-16 DEB

Track SL-16 DEB now!
10-day predictions
SL-16 DEB is classified as:


NORAD ID: 28354
Int'l Code: 2004-021C
Perigee: 850.1 km
Apogee: 1,176.6 km
Inclination: 71.0 °
Period: 105.3 minutes
Semi major axis: 7384 km
RCS: 0.0814 m2 (small)
Launch date: June 10, 2004
Source: Commonwealth of Independent States (former USSR) (CIS)

Note: This is SATELLITE DEBRIS
Your satellite tracking list
Your tracking list is empty





NASA's NSSDC Master Catalog

Two Line Element Set (TLE):
1 28354U 04021C   15245.45874301 +.00000001 +00000-0 +41765-4 0  9996
2 28354 070.9550 264.4448 0221067 111.8972 250.5790 13.68141595560180

Source of the keplerian elements: AFSPC

N2YO: 290